Location: Bakov nad Jizerou
(50.4784°N, 14.9394°E)
Time: 23:45:18
(UTC+00:00)

Cosmos 2263 Rocket - Pass Details

Date: 16 June 2021
Orbit: 822 x 850 km, 71.0° (Epoch: 23 July)

Event Time Altitude Azimuth Distance (km) Brightness Sun altitude
Rises 20:47:58 0° 318° (NW) 3,421 7.3 -10.5°
Reaches altitude 10° 20:51:23 10° 298° (WNW) 2,482 5.6 -10.8°
Maximum altitude 20:54:38 16° 262° (W) 2,098 4.5 -11.0°
Drops below altitude 10° 20:57:53 10° 227° (SW) 2,474 4.5 -11.3°
Sets 21:01:18 0° 206° (SSW) 3,403 5.0 -11.5°
